Regional Weather Roundup
Issued by NWS

Home | Current Version | Previous Version | Text Only | Print | Product List | Glossary Off
Versions: 1 2 3 4 5 6 7 8 9 10 11 12 13 14 15 16 17 18 19 20 21 22 23 24 25 26 27 28 29 30 31 32 33 34 35 36 37 38 39 40 41 42 43 44 45 46 47 48 49 50

000
ASUS43 KFSD 181902
RWRSD

WEATHER ROUNDUP FOR SOUTH DAKOTA
NATIONAL WEATHER SERVICE SIOUX FALLS SD
200 PM CDT WED APR 18 2018

NOTE: "FAIR" INDICATES FEW OR NO CLOUDS BELOW 12,000 FEET WITH NO
SIGNIFICANT WEATHER AND/OR OBSTRUCTIONS TO VISIBILITY.


SDZ001>005-009-010-012>017-182000-
NORTHWEST AND NORTH CENTRAL SOUTH DAKOTA

CITY           SKY/WX    TMP DP  RH WIND       PRES   REMARKS
BUFFALO          N/A     55  29  36 NW25G33   30.08S
FAITH            N/A     47  36  65 N17       30.15S
MOBRIDGE       CLOUDY    46  37  71 NW14      30.13S
$$

SDZ012>016-024>037-041>051-057-063-072>074-182000-
SOUTHWEST AND SOUTH CENTRAL SOUTH DAKOTA

CITY           SKY/WX    TMP DP  RH WIND       PRES   REMARKS
RAPID CTY ARPT PTSUNNY   53  29  39 N29G36    30.16S
PIERRE         CLOUDY    36  34  92 NW14      30.17R
CUSTER         MOSUNNY   46  17  31 NW12G22   30.16R
ELLSWORTH AFB  PTSUNNY   52  28  40 N24G33    30.15F
PHILIP         PTSUNNY   49  38  65 N17       30.16F
PINE RIDGE     CLOUDY    51  30  44 N21G32    30.16F
SPEARFISH      PTSUNNY   48  25  40 NW20G26   30.19S
WINNER         LGT SNOW  35  31  85 NW8       30.18R FOG     WCI  29
$$

SDZ004>011-016>023-039-040-182000-
NORTHEAST SOUTH DAKOTA

CITY           SKY/WX    TMP DP  RH WIND       PRES   REMARKS
ABERDEEN       CLOUDY    45  31  58 N16       30.11S
WATERTOWN      CLOUDY    39  32  76 NW18      30.03S
BROOKINGS      CLOUDY    37  28  70 NW18      30.02F
SISSETON         N/A     45  30  55 N21       30.05S
$$

SDZ017-020-022-023-036>040-048>070-182000-
SOUTHEAST SOUTH DAKOTA

CITY           SKY/WX    TMP DP  RH WIND       PRES   REMARKS
SIOUX FALLS    LGT SNOW  34  31  88 NW13      30.05R FOG     WCI  25
HURON          CLOUDY    36  32  85 W17       30.10F
CHAMBERLAIN    DRIZZLE   37  37 100 W9        30.17R
MITCHELL       CLOUDY    36  32  85 W15       30.12S
YANKTON        LGT RAIN  35  31  85 NW21      30.10R WCI  24
$$

ABBREVIATIONS USED IN REMARKS
   TC - TEMPERATURE IN CELSIUS
  WCI - WIND CHILL INDEX
   HX - HEAT INDEX
  VSB - VISIBILITY





USA.gov is the U.S. government's official web portal to all federal, state and local government web resources and services.